www.pogodaiklimat.ru
ПОГОДА в Майами
Время
и дата
07:53 15.07
08:07 15.07
08:31 15.07
08:46 15.07
08:53 15.07
09:06 15.07
09:41 15.07
09:49 15.07
09:53 15.07
10:17 15.07
10:53 15.07
11:03 15.07
11:53 15.07
12:53 15.07
13:53 15.07
14:53 15.07
15:53 15.07
16:53 15.07
17:53 15.07
18:53 15.07
19:53 15.07
20:48 15.07
20:53 15.07
21:53 15.07
22:21 15.07
22:36 15.07
22:44 15.07
22:53 15.07
23:53 15.07
00:53 16.07
01:53 16.07
02:53 16.07
03:53 16.07
04:53 16.07
05:50 16.07
05:53 16.07
06:12 16.07
06:53 16.07
07:24 16.07
07:39 16.07
07:53 16.07
08:53 16.07
09:04 16.07
09:12 16.07
09:23 16.07
09:32 16.07
09:53 16.07
13:55 16.07
Ветер
(напр.,м/с)
Видим. Явления Облачность Т
(С)
Тd
(С)
f
(%)
Тe
(С)
Тes
(С)
Комфортность P
(гПа)
Po
(гПа)
Тmin
(С)
Tmax
(С)
R
(мм)
R24
(мм)
S
(см)
В 4 16 км ясно +30.6 +25.6 75 +45 +47 опасность
перегрева
1018.6 1018.1
В 4 16 км гроза 5/5 630 m
[Cb]
+31.1 +26.1 75 +47 +49 опасность
перегрева
1018.5
В 4 16 км 8/8 690 м +31.1 +25.6 73 +46 +47 очень
душно
1018.5
В 3 16 км 8/8 630 м +30.6 +25.6 75 +45 +46 очень
душно
1018.1
ЮВ 3 16 км 8/5 630 m
[Ac]
+30.0 +25.6 77 +44 +46 опасность
перегрева
1018.9 1018.5
Ю 3 16 км 8/8 690 m
[Ac]
+28.3 +25.0 82 +41 +42 очень
душно
1018.8
В 3
{9}
5 км сильный дождь, дымка 10/10 780 m
[Ns]
+26.7 +25.0 90 +38 +38 очень
душно
1019.5
СВ 2 6 км гроза с дождем, дымка 10/8 990 m
[Ac Cb]
+27.0 +26.0 94 +40 +41 очень
душно
1019.2
штиль 0 11 км гроза с дождем 10/8 990 m
[Ac Cb]
+27.2 +26.1 94 +41 +42 очень
душно
1019.5 1019.2 5.6
В 5 16 км гроза 8/8 660 m
[Cb]
+27.8 +26.1 90 +42 +43 очень
душно
1019.2
В 6 16 км гроза ясно +28.9 +25.6 82 +43 +49 опасность
перегрева
1019.3 1018.8
В 5 16 км ясно +28.9 +24.4 77 +41 +51 опасность
перегрева
1018.8
В 4 16 км ясно +30.6 +23.3 65 +41 +54 опасность
перегрева
1018.7 1018.1
ЮВ 4 16 км ясно +32.2 +23.9 62 +44 +59 опасность
перегрева
1018.2 1017.8 +26.7 +32.8 6.1
В 4 16 км ясно +31.7 +23.9 63 +43 +58 опасность
перегрева
1017.7 1017.5
В 6 16 км 2/2 600 м +31.1 +24.4 68 +44 +50 опасность
перегрева
1016.9 1016.5
ЮВ 4 16 км ясно +30.6 +24.4 70 +43 +53 опасность
перегрева
1016.0 1015.4
ЮВ 5 16 км ясно +30.6 +24.4 70 +43 +48 опасность
перегрева
1015.7 1015.4
В 5 16 км ясно +30.6 +24.4 70 +43 +45 опасность
перегрева
1016.0 1015.8
ЮВ 4 16 км 5/5 720 м +30.0 +25.0 75 +43 +44 опасность
перегрева
1016.7 1016.5 +30.0 +32.8
ЮВ 3 16 км ясно +28.9 +25.0 80 +42 +42 опасность
перегрева
1017.3 1016.8
В 4 16 км 8/8 660 м +28.0 +26.0 89 +42 +42 очень
душно
1017.1
В 3 16 км 5/5 660 м +28.3 +25.6 85 +42 +42 опасность
перегрева
1017.7 1017.1
СВ 2 16 км ясно +28.3 +25.0 82 +41 +41 опасность
перегрева
1017.9 1017.5
В 2 16 км гроза 5/5 750 m
[Cb]
+28.3 +25.0 82 +41 +41 опасность
перегрева
1017.5
В 2 16 км 2/2 690 м +27.2 +25.0 88 +39 +39 очень
душно
1017.8
В 5
{7}
16 км гроза 5/5 780 m
[Cb]
+27.2 +25.0 88 +39 +39 очень
душно
1017.8
В 4 16 км 8/8 780 м +27.8 +25.0 85 +40 +40 очень
душно
1018.0 1017.5
штиль 0 16 км 5/5 660 м +27.2 +23.3 79 +37 +37 очень
душно
1017.4 1017.1
штиль 0 16 км 8/8 600 м +26.7 +24.4 87 +37 +37 очень
душно
1017.0 1016.5 +26.1 +30.0
ЮВ 2 16 км ясно +27.2 +25.0 88 +39 +39 очень
душно
1016.3 1016.1
ЮВ 2 16 км ясно +27.8 +25.0 85 +40 +40 очень
душно
1016.0 1015.4
Ю 2 16 км ясно +27.2 +25.0 88 +39 +39 очень
душно
1015.8 1015.4
штиль 0 16 км 8/8 630 м +25.6 +24.4 93 +36 +36 очень
душно
1016.3 1015.8
Ю 4 16 км гроза со слабым дождем 10/8 660 m
[Ac Cb]
+26.0 +24.0 89 +36 +36 очень
душно
1016.8
Ю 5 16 км гроза со слабым дождем 10/10 660 m
[Cb]
+26.1 +24.4 90 +36 +36 очень
душно
1016.9 1016.5
Ю 3 16 км 8/8 780 m
[Ac]
+25.6 +24.4 93 +36 +36 очень
душно
1016.8
штиль 0 16 км 8/8 690 м +26.7 +25.0 90 +38 +38 очень
душно
1017.6 1017.1 +25.0 +27.8 3.0 9.1
СВ 3 16 км слабый дождь 8/8 570 m
[Ns]
+27.2 +25.6 91 +40 +40 очень
душно
1017.5
З 2 10 км дождь, дымка 10/8 630 m
[Ac Ns]
+27.2 +26.1 94 +41 +41 очень
душно
1017.8
штиль 0 16 км 8/8 690 м +27.8 +25.6 88 +41 +42 очень
душно
1018.1 1017.8
СЗ 3 16 км 8/8 510 м +30.0 +26.7 83 +47 +48 очень
душно
1018.4 1018.1
С 4 16 км гроза 8/8 360 m
[Cb]
+29.4 +26.7 85 +45 +47 очень
душно
1018.1
СЗ 2 13 км гроза со слабым дождем 8/8 360 m
[Cb]
+28.9 +26.1 85 +44 +46 очень
душно
1018.1
З 3 16 км гроза, слабый дождь 8/8 360 m
[Cb]
+29.4 +26.7 85 +45 +47 очень
душно
1018.1
С 2 16 км 5/5 630 м +29.4 +26.7 85 +45 +51 опасность
перегрева
1018.1
С 3 16 км 5/5 600 м +30.0 +26.7 83 +47 +51 опасность
перегрева
1018.7 1018.1 1.3
В 6 16 км 5/5 1110 м +34.0 +24.0 56 +46 +50 опасность
перегрева
1016.8
Местоположение метеостанции Kendall-Tamiami Executive Airport: широта 25.6419 долгота -80.4347 высота над уровнем моря 3 м.
В архиве по умолчанию представлена погода в Майами за последние 1-2 суток. Обновление информации о фактической погоде в базе происходит ежечасно! Архивные данные за месяц целиком и за предыдущие месяцы Вы можете получить, выбрав интересующий диапазон дат из раскрывающегося списка и нажав кнопку "Ввод!".
Внимание! Архив погоды МЕТАР в базе сайта по станциям, не включенным в климатический монитор, хранится не более 60 дней. Нет смысла пытаться выбрать более раннюю дату.
*Определитесь, кто Вы:
Внимание! Время в таблицах - местное (без учета летнего времени). Для получения всемирного времени необходимо вычесть поправку, которая равна -5 ч.
Смотрите также архив погоды в соседних городах и на ближайших метеорологических станциях:
Партнеры нашего сайта:      
Пояснения к столбцам:
  • Ветер - указаны скорость ветра в м/с - средняя за 10 мин, порывы в срок и между сроками (в фигурных скобках) и направление, откуда дует ветер: С - северный,
  • СВ - северо-восточный, В - восточный, ЮВ - юго-восточный, Ю - южный, ЮЗ - юго-западный, З - западный, СЗ - северо-западный.
  • Видимость - горизонтальная дальность видимости в метрах или километрах. При видимости от 1 до 10 км при отсутствии осадков обычно наблюдается дымка, при ухудшении видимости до 1 км и менее - туман. В сухую погоду видимость может ухудшаться дымом, пылью или мглою.
  • Явления - указаны атмосферные явления, наблюдавшиеся в срок или в последний час перед сроком; фигурными скобками обозначены явления, наблюдавшиеся между сроками (за 1-3 часа до срока); квадратными скобками обозначены град или гололедные отложения с указанием их диаметра в мм.
  • Облачность - указаны через наклонную черту общая и нижняя облачность в баллах и высота нижней границы облаков в метрах; квадратными скобками обозначены формы облаков: Ci - перистые, Cs - перисто-слоистые, Cc - перисто-кучевые, Ac - высококучевые, As - высокослоистые, Sc - слоисто-кучевые, Ns - слоисто-дождевые, Cu - кучевые, Cb - кучево-дождевые. Подробнее классификацию облаков см. в Атласе облаков (PDF).
  • T - Температура воздуха - температура, измеренная на высоте 2 м над землей.
  • Td - Температура точки росы - температура, при понижении до которой содержащийся в воздухе водяной пар достигнет насыщения.
  • f - Относительная влажность воздуха - влажноcть воздуха, измеренная на высоте 2 м над землей.
  • Te - Эффективная температура - температура, которую ощущает одетый по сезону человек в тени. Характеристика душности погоды. При расчете учитывается влияние влажности воздуха и скорости ветра на теплоощущения человека.
  • Tes - Эффективная температура на солнце - температура, которую ощущает человек, с поправкой на солнечный нагрев. Характеристика знойности погоды. Зависит от высоты солнца над горизонтом, облачности и скорости ветра. Ночью, в пасмурную погоду, а также при ветре 12 м/с и более поправка равна нулю.
  • P - Атмосферное давление - приведенное к уровню моря атмосферное давление.
  • Po - Атмосферное давление - измеренное на уровне метеостанции атмосферное давление.
  • Tmin - Минимальная температура - минимум температуры воздуха на высоте 2 м над землей.
  • Tmax - Максимальная температура - максимум температуры воздуха на высоте 2 м над землей.
  • R - Количество осадков - Количество выпавших осадков за период времени, мм. При наведении курсора мыши на число - период времени, за который выпало указанное количество осадков.
  • R24 - Количество осадков - Количество выпавших осадков за 24 часа, мм.
  • S - Снежный покров - Высота снежного покрова, см. При наведении курсора мыши на число - состояние снежного покрова и степень покрытия местности в баллах.